National Weather Service United States Department of Commerce

Latest Hourly Weather Roundup

TOPSWRTT 000
TTAA00 KICT 301012

Wichita AWIPS Roundup
National Weather Service Wichita KS
500 AM CDT FRI OCT 30 2020

....Central Kansas....
  
CITY           SKY/WX    TMP DP  RH WIND       PRES   REMARKS
RUSSELL        CLEAR     38  33  82 W7        30.13F WCI  33          
SALINA         CLEAR     35  31  85 S7        30.16F WCI  29          
GREAT BEND     CLEAR     37  33  85 SW8       30.17F WCI  31          
ELLSWORTH      CLEAR     36  30  80 SW5       30.14F WCI  32          
LYONS          FAIR      36  33  87 S5        30.17S WCI  32          
MCPHERSON      CLEAR     36  32  87 S7        30.18S WCI  30          
HAYS           CLEAR     40  35  83 W7        30.15F WCI  35          

....South Central Kansas....
  
CITY           SKY/WX    TMP DP  RH WIND       PRES   REMARKS
HUTCHINSON     CLEAR     40  32  73 CALM      30.18F                  
NEWTON         CLEAR     39  32  76 S9        30.19F WCI  33          
KINGMAN        CLEAR     41  36  81 S7        30.19S WCI  36          
WICHITA (ICT)  CLEAR     35  32  88 S5        30.20F WCI  31          
JABARA ARPT    CLEAR     37  31  78 S6        30.21S WCI  32          
BEECH ARPT     FAIR      37  32  83 S6        30.21S WCI  32          
MCCONNELL AFB  CLEAR     35  30  84 S6        30.21S WCI  29          
BENTON         FAIR      36  31  83 S3        30.22S                  
EL DORADO      FAIR      34  30  86 S6        30.22S WCI  29          
AUGUSTA        FAIR      32  30  93 SE6       30.22S WCI  26          
HARPER         NOT AVBL                                               
WELLINGTON     NOT AVBL                                               
WINFIELD       CLEAR     36  31  82 S3        30.24F                  
 
....Southeast Kansas....
  
CITY           SKY/WX    TMP DP  RH WIND       PRES   REMARKS
EUREKA         CLEAR     32  27  83 S8        30.24S WCI  25          
IOLA           FAIR      30  28  94 CALM      30.24F                  
CHANUTE        CLEAR     34  28  79 S6        30.24F WCI  29          
PARSONS          N/A    N/A N/A N/A MISG      30.26S                  
COFFEYVILLE    CLEAR     31  29  92 CALM      30.25S                  
INDEPENDENCE   CLEAR     31  29  95 SW3       30.27S                  
FORT SCOTT     PTCLDY    30  30 100 CALM      30.23S                  
PITTSBURG      CLEAR     30  24  81 CALM      30.23F                  

....Western Kansas....
  
CITY           SKY/WX    TMP DP  RH WIND       PRES   REMARKS
GOODLAND       CLEAR     36  32  85 W12       30.17S WCI  28          
HILL CITY      CLEAR     36  32  85 W6        30.14S WCI  31          
LIBERAL        CLEAR     37  33  85 W8        30.21F WCI  31          
GARDEN CITY    CLEAR     35  32  88 W8        30.18S WCI  29          
DODGE CITY     CLEAR     42  34  73 SW10      30.18S WCI  36          
PRATT          CLEAR     38  36  90 SW8       30.19S WCI  32          
MEDICINE LODGE   N/A     31  30  96 CALM      30.20F                  

....Northeast Kansas....
  
CITY           SKY/WX    TMP DP  RH WIND       PRES   REMARKS
CONCORDIA      CLEAR     44  32  62 SW8       30.11F WCI  39          
TOPEKA         CLEAR     31  27  85 CALM      30.20F                  
MANHATTAN      CLEAR     28  23  81 CALM      30.16F                  
LAWRENCE       CLEAR     27  26  96 E6        30.22S WCI  20          
OLATHE         CLEAR     33  30  88 SE7       30.20F WCI  27          
EMPORIA        CLEAR     34  28  79 S9        30.20S WCI  27          

....Oklahoma....
  
CITY           SKY/WX    TMP DP  RH WIND       PRES   REMARKS
GAGE           CLEAR     31  28  89 CALM      30.24S                  
PONCA CITY     CLEAR     35  32  88 CALM      30.25S                  
BARTLESVILLE   CLEAR     30  29  96 CALM      30.28F                  
TULSA          CLEAR     34  32  92 CALM      30.28S                  
OKLAHOMA CITY  CLEAR     33  31  92 CALM      30.26F                  

Note: "fair" indicates few or no clouds below 12,000 feet with no
significant weather and/or obstructions to visibility.